Theta_e
283 283 283 283 282 282 281 280 280 279 278 278 278 277 277 277 276 276 277 276 276 276 276 276 276 276 275 275 275 274 274 274 275 275 274 274 274 274 274 274 274 274 274 274 275 274 274 274 274 275 276 275 275 275 275 275 275 275 275 275 275 275 275 274 273 273 276 278 278 277 278 278 277 278 277 279 279 281 282 281 281 281 281 280 281
283 283 283 283 282 281 281 280 279 279 278 277 277 276 276 276 276 276 275 275 275 275 275 275 275 275 274 274 274 274 274 274 274 274 274 274 273 274 274 273 273 273 273 272 272 273 273 273 273 273 274 273 273 273 273 273 273 273 273 274 274 274 276 275 273 273 272 274 275 276 276 277 275 277 277 277 278 279 279 279 279 279 279 279 279
283 283 282 282 282 281 280 279 278 278 277 277 276 276 276 275 275 275 274 274 275 275 274 274 274 274 274 274 274 273 274 273 273 273 273 272 272 272 272 272 271 271 271 271 271 272 271 271 271 272 272 272 272 272 272 272 272 272 271 272 272 273 274 273 272 270 270 271 274 273 274 275 275 275 276 278 278 278 277 277 277 278 279 279 279
283 282 282 281 281 280 279 278 277 277 277 276 276 275 275 275 275 274 274 274 274 274 274 274 274 274 273 273 273 273 273 272 272 272 272 271 271 271 271 271 271 270 270 270 270 270 270 270 270 271 271 270 270 270 271 271 271 270 270 271 271 271 272 272 272 271 270 270 272 273 274 273 274 276 277 278 277 276 276 276 277 277 277 278 279
282 282 281 280 280 280 278 278 277 276 276 276 275 275 275 275 275 274 274 273 273 273 273 273 273 273 273 272 272 272 272 272 271 271 271 271 270 270 270 270 270 270 270 270 271 270 270 270 270 270 270 269 269 269 270 270 270 270 269 270 270 271 271 271 271 271 270 269 270 272 273 273 274 274 275 274 275 276 276 275 276 276 277 278 280
282 281 281 280 279 279 278 277 277 276 276 276 275 275 275 274 274 274 273 273 273 273 273 272 272 272 271 271 270 270 270 270 270 270 270 270 270 270 270 269 269 269 269 270 270 270 270 270 270 270 270 269 269 270 270 270 270 270 270 270 270 270 270 270 271 270 270 269 270 269 271 271 271 273 274 274 273 273 274 275 276 276 276 277 278
281 281 280 280 279 278 278 277 277 276 276 276 275 275 274 274 274 273 273 273 272 271 271 271 271 271 270 270 270 270 270 270 269 268 268 268 269 269 269 269 269 269 269 270 270 270 270 271 271 271 271 270 270 270 270 270 270 270 270 270 270 270 270 270 270 270 269 269 269 270 270 271 272 271 273 275 275 274 273 273 273 275 277 277 278
280 280 279 279 278 278 277 277 276 276 276 275 275 274 274 273 273 273 272 272 271 271 270 270 270 271 270 270 270 270 269 269 268 268 268 268 268 269 269 269 269 269 270 271 271 272 272 272 272 272 272 272 272 272 272 271 271 270 271 271 271 270 270 270 270 270 269 269 269 269 270 270 271 273 274 274 273 273 274 273 272 273 275 276 277
279 279 279 278 278 278 277 276 276 276 275 275 274 273 273 273 272 272 272 271 271 271 271 271 270 270 270 270 269 270 269 269 269 268 268 268 268 268 269 269 270 270 271 272 272 272 272 273 273 272 273 275 276 276 276 277 274 273 274 273 271 270 269 269 270 269 269 269 269 270 270 270 271 271 271 271 271 271 273 274 273 274 275 276 277
279 279 278 278 278 277 276 276 275 275 274 274 273 273 272 272 271 271 271 271 270 270 270 270 269 269 269 269 269 269 269 269 270 273 273 269 268 269 270 271 272 272 272 272 272 273 273 273 273 275 276 276 276 277 278 278 278 276 274 274 274 273 272 271 270 270 270 269 269 270 269 269 270 271 271 272 273 274 274 274 273 274 275 276 277
279 278 278 278 277 276 276 275 275 274 274 273 272 272 272 271 270 270 269 269 268 268 269 268 268 268 268 268 268 269 269 270 272 274 275 276 274 272 272 272 272 272 273 272 272 272 273 273 273 274 275 275 274 276 277 277 278 278 278 278 278 275 273 272 272 272 271 271 271 271 270 270 271 272 272 273 274 274 273 274 274 275 274 273 273
278 278 277 277 276 276 275 274 274 273 272 272 272 271 270 269 269 268 267 267 267 268 268 268 268 268 268 268 269 269 269 271 273 274 275 276 276 274 273 273 273 273 273 273 272 272 272 272 272 273 273 273 273 273 275 277 277 278 278 278 278 278 278 275 273 272 272 271 271 272 272 272 272 273 273 274 274 275 275 275 275 274 274 274 274
278 277 277 276 275 275 274 273 272 272 271 271 270 269 268 268 268 267 267 267 267 267 267 267 267 268 268 268 268 269 269 271 273 274 275 275 276 275 274 274 273 273 273 273 272 272 272 272 272 272 273 275 274 274 274 273 276 277 278 278 278 278 278 279 279 275 274 272 271 271 272 273 273 274 276 276 277 275 275 275 275 276 275 275 275
277 276 276 275 275 274 273 273 272 271 270 269 269 268 267 267 267 267 267 267 267 267 267 267 268 268 268 268 268 268 268 270 273 273 274 275 276 276 274 274 274 273 272 272 272 272 272 272 272 272 273 273 274 274 274 273 273 273 273 273 273 274 277 278 278 278 277 274 273 271 273 273 272 273 275 276 275 274 274 274 275 274 274 274 276
276 276 275 275 274 274 273 272 271 270 269 268 267 267 267 266 266 267 267 267 266 266 266 267 267 268 268 268 268 267 267 271 272 273 274 275 276 276 274 273 272 272 272 272 272 272 273 273 273 273 273 273 274 275 274 275 274 274 274 274 274 274 273 273 273 273 273 273 273 273 273 274 275 275 276 277 276 276 276 275 275 275 275 277 277
276 276 275 275 274 274 273 272 271 269 268 267 267 267 266 266 266 267 267 267 267 267 267 267 267 267 267 267 266 266 267 270 272 273 274 274 276 274 273 272 272 272 272 273 273 273 273 273 273 273 274 274 276 278 277 275 274 274 273 273 274 274 275 276 278 278 276 275 275 274 274 275 277 276 276 276 277 277 277 277 276 276 275 274 273
276 275 275 274 274 273 273 272 270 268 267 267 266 266 266 266 266 267 266 267 266 267 267 267 267 267 266 266 266 266 266 268 271 272 273 275 275 273 273 272 272 271 272 272 273 273 273 274 274 274 274 273 275 277 278 278 274 274 273 273 273 273 273 275 278 279 280 280 281 281 281 282 282 283 283 283 281 280 278 276 274 275 274 272 273
276 275 274 274 273 273 272 270 269 268 267 266 266 266 266 267 266 267 266 266 266 267 267 266 267 266 266 266 266 265 265 267 271 272 274 274 275 273 272 271 271 272 272 273 273 273 274 276 275 273 272 272 275 277 278 276 273 273 272 272 272 272 273 275 275 276 279 280 280 280 281 281 282 282 283 283 283 281 276 274 276 277 275 275 273
276 275 274 273 272 272 271 270 268 267 266 266 266 266 266 266 266 266 266 267 266 267 266 266 266 266 266 266 267 267 265 267 271 272 273 274 274 272 272 271 271 271 271 272 273 273 273 274 275 274 273 274 277 277 278 276 274 273 273 272 272 271 273 274 274 274 274 274 275 276 276 278 278 277 277 281 281 280 277 276 277 276 275 275 275
276 275 273 272 272 271 270 269 268 267 266 266 266 266 267 266 266 265 266 266 265 266 266 265 265 265 266 265 265 266 266 266 268 272 273 274 274 273 272 271 270 271 271 271 271 272 272 271 272 274 275 276 276 277 278 279 275 274 274 272 271 271 273 273 274 274 274 275 275 276 276 276 276 276 276 276 277 278 278 278 278 277 276 276 276
274 273 272 271 270 270 270 269 268 267 266 266 266 266 266 266 265 265 265 265 265 265 265 265 265 264 265 265 266 266 267 267 268 272 273 273 274 274 272 272 272 271 271 271 271 270 270 270 270 272 274 275 277 278 278 278 278 274 273 272 271 273 276 273 274 276 274 274 274 274 275 276 276 276 276 276 277 277 277 278 277 277 277 276 276
273 271 270 270 269 268 268 268 267 267 266 265 265 265 265 265 265 264 264 264 264 264 264 264 263 264 265 266 267 267 268 270 267 270 272 273 274 275 273 272 273 272 271 271 270 270 269 269 269 271 275 276 277 277 277 277 277 273 271 275 277 277 274 273 273 271 271 272 273 274 275 275 275 275 276 276 277 277 277 278 278 278 279 279 278
271 270 269 268 268 267 266 266 266 265 265 265 264 264 264 264 264 263 264 264 263 262 262 263 263 264 265 266 267 267 267 267 270 269 271 273 274 274 275 274 275 273 271 270 269 269 269 269 270 273 275 276 276 276 276 276 274 271 275 276 276 276 274 270 270 269 269 270 270 271 274 275 275 275 275 276 277 278 279 279 280 280 280 281 282
270 269 268 267 266 265 265 265 265 265 264 265 264 263 263 263 262 263 263 263 262 262 263 263 264 264 264 265 266 266 267 267 269 270 270 272 273 274 274 275 275 273 272 270 269 269 268 269 271 275 275 274 274 274 274 273 271 274 275 275 275 273 269 268 268 268 268 268 269 270 271 274 276 276 277 277 278 279 279 280 280 281 281 282 282
268 268 267 266 265 264 263 263 263 263 264 264 263 262 262 262 261 262 262 263 262 262 263 264 264 264 264 264 265 266 267 267 267 269 271 272 273 273 274 274 274 274 271 270 270 269 272 274 274 273 273 273 273 272 270 270 272 273 273 273 272 268 267 267 267 267 267 267 268 269 270 271 273 274 277 278 279 280 279 279 280 281 281 282 283
267 266 266 264 263 263 262 262 262 263 264 264 264 263 262 262 262 262 262 263 263 263 264 264 264 264 264 265 265 266 266 266 267 268 270 271 271 272 273 273 273 273 272 270 272 273 273 272 271 271 270 269 267 266 266 267 271 271 271 271 267 266 267 267 267 267 266 267 267 268 269 270 271 273 274 274 274 275 278 279 279 280 281 281 281
266 265 264 263 262 262 261 261 261 262 263 263 263 263 262 263 263 262 262 263 264 264 264 264 264 264 264 264 265 265 265 265 267 268 269 269 270 270 270 270 272 271 269 268 270 267 266 266 267 269 268 270 269 269 268 268 265 265 265 266 266 266 267 267 267 267 267 267 267 268 269 270 271 271 271 272 273 274 278 280 280 280 281 281 281
266 264 263 262 262 262 261 262 261 261 262 262 262 262 263 264 263 263 263 264 263 263 264 264 264 264 263 264 264 264 264 265 266 267 268 270 270 270 270 270 269 268 268 269 268 265 263 265 265 263 263 263 263 262 262 263 263 264 264 265 265 266 268 270 270 268 268 268 268 268 269 269 269 269 270 271 271 273 276 278 280 280 281 281 280
265 263 263 262 261 262 262 261 261 261 262 262 263 263 263 264 264 264 266 266 265 264 264 265 265 265 264 264 263 263 264 265 266 271 271 271 270 270 269 269 269 268 270 271 266 262 260 260 260 260 260 260 260 260 261 261 262 263 263 264 265 265 265 266 265 266 267 267 267 267 267 268 268 269 269 269 270 272 274 275 278 280 282 282 280
264 263 262 262 261 261 261 261 261 261 262 262 262 263 266 268 266 265 265 268 270 270 269 266 266 265 265 266 266 264 264 266 271 271 271 271 272 272 271 271 271 270 270 270 266 258 257 257 258 259 259 259 259 260 260 260 261 261 262 265 264 264 265 265 265 266 267 267 267 267 267 267 267 268 268 268 269 270 272 274 273 276 278 280 280
264 263 262 262 262 261 261 261 261 261 262 262 262 262 263 266 269 269 269 270 271 271 271 271 271 270 267 264 268 270 270 271 271 271 271 271 271 271 271 270 270 270 270 264 258 256 256 257 257 258 259 259 259 259 260 260 261 261 262 263 263 264 265 265 265 266 266 267 267 267 267 267 267 267 266 267 267 268 269 271 272 274 276 279 280
264 263 263 263 262 262 262 261 261 261 262 262 261 262 263 263 265 269 271 271 272 272 272 271 271 271 270 268 266 266 269 270 270 270 270 270 270 270 269 270 270 270 268 265 256 256 256 256 257 257 258 258 259 259 260 260 261 261 261 262 262 264 264 264 266 266 266 266 266 267 267 267 266 266 266 266 267 267 267 268 270 271 274 277 280
264 263 263 263 262 262 262 261 261 261 261 261 261 262 262 263 263 264 268 271 272 272 271 271 271 271 271 271 270 269 269 270 270 270 270 269 269 269 268 268 269 268 265 258 254 255 256 256 256 257 257 257 258 259 259 260 260 261 261 262 262 263 264 265 266 266 267 267 267 267 267 266 266 266 266 266 266 265 266 267 268 270 271 273 277
265 264 263 262 262 262 262 261 262 262 262 262 262 262 263 263 263 264 263 265 267 269 271 271 271 271 271 270 270 270 270 270 269 269 269 269 268 267 265 263 266 266 263 255 255 254 255 255 256 256 257 258 258 259 259 260 260 261 262 262 263 264 265 265 265 265 266 267 267 266 266 266 266 265 265 265 265 265 265 266 267 267 269 271 273
265 263 263 263 263 262 262 262 262 262 263 262 262 262 263 263 264 263 263 264 262 261 261 263 267 269 267 268 269 270 269 269 269 268 268 267 266 265 262 256 255 255 256 255 255 254 254 255 255 256 256 257 257 258 259 259 260 260 261 262 263 263 264 264 264 265 266 267 266 266 266 266 265 265 265 264 264 264 264 265 265 267 267 269 272
265 263 263 263 263 263 262 263 262 263 263 263 263 263 263 263 262 262 262 263 261 259 258 258 258 265 268 267 268 268 268 268 268 268 267 266 264 262 254 252 252 253 253 253 253 254 254 254 255 255 256 257 257 258 259 259 260 260 261 262 262 263 263 264 264 265 267 266 266 266 266 265 265 265 264 264 264 264 264 264 265 266 267 269 271
264 263 263 263 263 263 263 263 263 263 264 262 262 261 261 261 261 260 260 260 258 258 257 256 256 258 261 259 263 265 267 267 267 266 265 264 262 256 251 250 249 250 251 251 252 253 253 253 254 254 255 256 256 257 258 259 260 260 262 262 262 263 263 264 265 266 266 266 266 266 265 265 265 264 264 263 263 264 264 264 265 266 267 269 271
264 263 263 263 263 263 262 262 262 263 261 261 260 260 259 259 258 258 258 257 257 256 255 256 258 255 255 255 262 259 260 262 263 260 258 258 254 251 250 250 251 250 250 250 251 251 252 253 253 254 254 255 256 257 258 259 260 260 261 261 262 263 266 265 265 266 266 266 266 266 265 265 265 264 264 263 263 263 263 264 264 264 266 268 269
264 264 265 264 265 262 262 261 261 259 259 260 259 258 257 257 257 256 256 256 256 255 255 256 255 254 254 254 254 258 257 251 249 249 249 248 248 247 247 248 249 249 250 250 251 251 251 252 253 254 254 255 256 257 257 258 259 260 261 261 262 263 263 263 264 266 266 266 266 266 265 265 264 264 264 263 263 263 263 264 264 265 265 266 267
263 264 264 264 263 262 261 260 259 259 258 257 258 257 257 256 256 256 256 255 255 254 254 254 253 253 254 254 255 255 252 250 248 247 247 247 247 247 247 247 247 248 249 250 249 250 251 251 252 253 254 254 255 256 257 258 259 260 261 261 262 262 263 263 264 266 266 266 266 265 265 265 264 264 264 264 264 264 264 264 264 265 266 266 268
264 263 263 264 262 261 259 259 259 259 258 257 257 257 256 256 255 255 255 255 254 254 254 253 253 252 254 257 263 260 251 249 248 247 246 247 247 246 246 247 247 247 248 249 250 250 250 251 252 253 253 254 255 256 257 258 259 260 260 261 262 262 263 263 265 266 266 266 265 265 265 265 264 264 263 263 265 265 264 264 264 265 266 267 268
263 262 262 261 261 259 259 258 258 257 257 256 257 256 255 255 255 255 254 254 254 253 253 252 252 251 256 263 263 262 251 246 247 246 246 246 246 245 247 246 246 245 246 247 248 249 250 251 252 252 253 254 255 255 257 257 258 259 260 261 262 262 263 263 266 267 266 266 265 265 265 265 265 264 264 266 263 263 264 264 264 265 265 266 268
262 262 261 260 259 259 258 257 257 256 256 256 255 255 255 254 254 254 253 253 253 253 252 252 251 250 252 261 261 259 248 244 249 246 245 246 245 246 245 245 246 246 246 247 247 248 249 250 251 252 253 254 254 255 256 257 258 260 261 262 262 262 263 265 267 267 266 266 265 265 265 264 264 264 263 263 263 263 263 264 264 264 265 266 268
261 261 259 259 259 258 257 257 256 256 256 255 254 254 254 253 253 253 253 253 252 252 252 251 251 250 248 251 252 249 246 245 244 243 245 246 245 245 245 244 246 247 247 247 248 248 249 250 251 252 253 254 254 255 256 258 259 260 261 262 262 263 264 265 267 267 266 266 265 264 264 264 264 264 263 263 263 263 263 263 264 264 265 266 267
261 259 258 258 257 256 256 256 255 254 253 253 253 253 253 253 252 252 252 252 251 251 251 250 250 249 248 247 246 245 244 243 246 246 245 243 244 243 243 244 245 247 247 248 248 248 249 250 251 251 252 253 254 255 257 258 260 261 262 262 262 263 264 266 267 268 267 266 265 264 264 264 264 263 263 263 263 263 263 263 263 265 264 265 266
259 258 258 257 256 256 255 254 254 253 253 252 252 252 252 252 252 252 251 251 251 250 250 249 249 248 247 246 246 247 244 242 242 243 245 244 244 243 244 244 245 245 246 247 248 248 249 250 251 251 252 253 254 255 257 258 260 261 262 263 263 264 266 268 269 268 267 266 265 264 264 264 264 264 264 263 263 263 263 263 263 264 264 265 267
259 258 258 257 256 255 253 253 253 252 252 252 252 252 252 251 252 251 251 251 251 250 249 249 248 248 247 246 245 244 244 245 243 244 243 242 242 242 243 243 245 246 247 247 247 248 249 250 250 251 252 253 254 255 256 258 259 261 262 263 264 265 267 269 269 269 268 267 266 265 264 264 264 263 263 263 263 263 263 263 263 263 264 265 266
257 257 256 255 254 253 253 253 252 252 252 252 252 252 251 251 251 250 250 250 250 249 249 248 248 247 246 245 245 244 244 243 244 245 243 243 242 242 242 243 245 246 247 247 247 248 249 249 250 250 251 253 254 255 256 258 259 261 262 263 264 266 268 269 270 269 268 267 266 265 264 264 264 264 263 263 263 263 262 262 263 263 264 265 267
256 255 254 253 253 253 253 253 253 253 252 252 251 251 250 250 250 250 249 249 249 249 249 248 246 246 245 245 245 244 244 245 242 242 242 242 243 243 243 244 246 246 246 247 247 248 248 249 250 250 251 252 253 254 256 258 259 261 262 263 265 268 269 269 270 269 268 267 266 265 265 264 264 264 264 263 263 263 263 263 263 263 264 265 266
255 254 254 254 253 253 253 253 253 253 252 252 251 251 250 250 250 250 251 251 250 250 250 249 247 246 245 245 245 244 244 243 243 243 243 243 243 243 244 244 244 245 245 246 247 248 248 249 249 250 251 252 253 254 256 258 259 261 262 264 266 268 269 270 270 269 268 267 266 265 265 264 264 264 264 263 263 263 262 262 263 263 263 263 264
255 254 254 254 253 253 253 253 252 252 252 252 251 251 250 250 251 251 251 251 251 250 249 249 246 245 245 245 245 244 244 243 243 243 243 243 244 244 245 245 246 245 246 246 247 247 248 248 249 250 250 252 253 254 256 258 259 261 264 266 267 268 269 270 270 270 269 267 266 265 264 264 264 263 263 263 263 263 262 263 262 262 262 263 264
Wind_Speed
16 16 14 15 14 16 14 13 13 11 11 11 11 11 10 9 9 8 8 7 7 7 6 6 5 5 5 4 4 3 3 3 2 2 3 3 4 4 4 4 5 6 5 6 6 6 7 8 9 9 8 9 8 8 8 9 9 9 8 8 10 11 12 16 19 24 19 16 16 19 15 13 16 11 11 12 14 11 13 14 14 14 15 16 17
17 16 15 14 15 14 14 11 11 10 11 11 11 11 10 10 9 9 8 7 7 7 7 5 5 5 4 4 4 3 3 3 3 2 3 3 4 3 4 4 5 6 5 7 6 6 7 9 10 9 7 9 9 10 9 9 8 9 9 9 11 13 12 13 15 16 20 17 19 20 19 11 17 15 14 13 14 13 15 14 13 13 14 15 15
13 13 14 14 15 13 12 12 12 12 13 11 11 11 10 9 9 10 9 8 7 7 6 6 5 5 4 4 3 3 3 3 2 2 3 3 4 4 4 4 5 6 7 7 7 6 8 9 10 8 7 9 9 9 8 9 8 10 11 10 12 13 11 11 13 17 22 23 19 22 21 16 14 19 19 16 14 12 14 14 14 13 11 14 15
14 13 13 14 14 13 14 12 13 13 13 11 12 11 10 10 9 9 9 8 8 6 6 6 5 5 5 4 4 3 3 2 3 3 3 3 3 5 5 5 5 6 7 7 7 7 8 10 10 9 9 10 10 9 9 8 9 9 10 11 12 13 13 13 16 17 18 20 18 17 18 16 17 17 14 15 15 15 15 16 14 15 16 14 16
12 14 14 14 15 15 15 14 15 14 14 11 13 12 11 10 9 9 9 8 7 7 6 5 5 5 5 4 4 3 3 3 3 3 3 3 4 5 5 5 5 6 7 8 8 8 9 10 10 9 9 10 10 10 9 10 9 10 11 11 12 13 12 12 15 16 18 20 19 18 19 17 17 19 17 19 18 14 13 14 14 14 15 16 15
12 13 13 15 15 16 15 14 16 15 14 12 13 12 11 10 10 8 9 9 7 7 6 5 5 5 4 4 3 3 2 2 2 3 3 3 4 5 5 5 6 7 7 8 8 8 9 10 10 10 10 10 11 10 10 12 12 12 13 13 13 12 14 16 15 18 17 20 20 20 18 18 17 16 15 15 16 16 15 15 15 14 14 15 16
11 12 13 14 14 15 15 16 14 13 13 12 11 11 11 10 10 10 8 9 8 7 6 5 4 5 3 3 2 2 2 2 3 3 4 4 5 6 6 6 7 6 7 8 9 9 10 11 11 11 12 11 12 12 11 14 13 14 14 14 15 15 16 16 15 18 18 17 17 17 18 18 17 19 14 14 16 15 16 17 18 14 12 14 15
12 12 12 13 14 14 13 12 12 12 10 11 11 11 10 10 10 9 9 9 8 7 7 7 4 4 3 3 3 2 3 3 4 4 5 5 5 5 5 6 6 8 9 10 11 12 13 13 13 12 13 14 13 14 15 15 15 16 16 14 15 15 17 14 16 14 17 15 18 16 16 18 14 16 13 14 17 15 13 15 20 19 13 13 15
12 12 12 13 14 12 11 10 10 11 11 12 12 11 11 10 10 9 9 8 6 6 6 5 5 4 4 3 4 4 4 5 5 5 5 6 5 4 5 6 8 9 10 11 12 12 13 13 12 12 14 18 22 21 21 21 16 14 12 10 12 13 14 13 14 12 14 14 16 15 15 18 17 15 16 14 15 17 14 14 18 19 16 16 14
14 14 14 14 11 11 12 11 11 11 12 12 12 11 11 11 10 9 8 8 7 6 6 5 5 5 5 6 6 6 6 5 8 14 11 6 5 4 5 7 8 10 11 12 12 12 13 11 12 19 21 22 23 24 25 25 26 21 17 14 12 12 13 13 13 12 14 15 14 14 15 17 13 17 18 17 16 18 17 18 21 19 15 15 16
14 14 14 11 11 11 12 12 12 13 12 11 10 11 11 10 10 9 8 7 7 6 6 6 6 6 6 6 7 6 6 6 12 12 12 12 7 6 7 8 9 10 11 11 12 12 12 13 12 14 16 18 18 25 25 25 26 28 30 29 25 19 16 16 16 15 14 15 14 14 15 20 17 16 20 16 14 19 18 15 15 15 15 16 18
13 12 11 11 12 13 12 12 12 11 11 12 11 11 10 10 10 9 9 8 7 6 6 6 6 6 6 7 7 6 6 9 13 11 11 11 10 8 7 8 8 9 10 11 12 12 13 12 11 9 12 13 13 15 19 26 28 29 31 30 30 30 28 20 17 15 16 16 16 16 17 16 18 12 16 14 16 17 17 17 18 14 16 15 16
12 12 12 13 13 13 12 13 12 12 11 11 10 11 11 10 9 9 9 7 7 7 7 7 7 7 7 7 7 6 6 10 11 11 10 11 12 11 7 8 9 9 9 10 11 12 12 13 14 14 10 22 19 15 15 17 23 30 31 32 32 33 31 33 32 24 17 18 19 21 17 18 19 18 13 19 14 19 17 15 17 14 12 15 17
13 13 12 13 14 14 14 15 14 13 12 12 12 12 12 10 7 7 7 8 8 7 7 8 7 7 7 7 6 6 6 8 11 9 10 11 11 11 7 8 7 8 10 11 11 12 14 15 14 13 15 15 14 15 15 16 16 16 17 16 15 21 28 32 33 36 31 22 21 21 19 16 22 19 17 17 19 15 15 16 16 14 15 17 17
12 14 14 14 15 15 16 15 15 14 14 14 14 14 12 9 10 9 8 9 9 9 8 8 7 6 6 6 4 5 5 10 9 9 10 11 11 11 5 5 7 7 9 10 11 13 14 13 14 18 16 13 14 16 15 16 17 16 16 16 14 11 13 14 16 17 17 20 21 21 18 17 19 20 16 14 18 15 14 18 17 16 17 17 15
14 14 15 16 17 16 17 17 16 15 15 16 15 11 10 11 11 9 8 7 6 6 6 6 7 7 6 5 4 6 6 9 8 8 9 9 11 6 3 7 7 7 8 10 12 12 12 14 15 14 14 14 17 27 25 20 18 18 19 17 16 13 11 14 22 24 22 19 20 20 20 22 25 23 22 18 15 15 16 17 17 15 15 17 19
16 17 17 17 17 17 17 17 16 16 17 14 10 10 12 11 9 8 9 8 8 8 7 6 6 6 6 6 6 6 5 7 8 8 9 10 8 4 5 5 6 7 8 10 10 11 12 13 15 15 15 16 21 27 27 26 18 16 16 17 16 15 16 15 25 33 34 37 39 40 41 41 41 41 40 41 31 22 15 16 19 13 15 18 17
17 16 17 16 16 16 16 17 18 17 19 15 11 10 9 8 9 8 9 10 8 8 7 6 6 6 7 7 7 6 4 7 9 8 9 9 8 4 4 6 7 7 8 9 7 9 12 21 19 16 16 16 25 28 28 23 16 16 16 18 19 17 14 12 12 16 28 34 37 38 38 39 39 40 40 39 38 28 17 19 17 11 17 16 14
16 17 16 15 14 15 15 16 17 17 17 15 15 13 11 10 9 8 7 7 8 7 6 6 5 5 5 5 8 7 6 7 10 8 8 8 7 3 5 5 7 8 8 8 8 9 11 12 20 19 19 21 27 27 29 25 18 17 15 17 17 18 17 15 14 16 16 17 19 20 22 27 26 23 24 37 38 34 23 21 17 15 19 17 15
13 11 12 14 13 14 14 16 16 17 16 14 10 8 9 9 9 9 7 6 6 6 5 5 5 4 3 4 4 5 6 5 6 9 8 8 9 6 4 5 7 8 8 8 8 8 9 10 13 19 24 26 27 29 29 32 21 16 15 15 19 21 17 16 18 18 19 18 18 18 19 19 19 19 17 17 19 19 20 17 14 12 16 16 15
13 13 13 14 14 15 14 16 17 14 15 15 12 9 8 10 9 8 9 7 7 7 7 5 4 4 3 4 5 7 6 5 6 8 7 8 9 8 4 6 7 7 7 8 8 10 10 11 11 18 25 26 28 31 30 29 27 18 14 14 17 22 26 18 20 26 17 17 18 18 17 16 16 14 13 13 13 14 17 18 19 17 17 17 17
12 14 15 15 15 14 14 13 15 15 14 14 14 10 7 7 8 8 6 8 9 7 6 5 4 4 4 5 5 5 7 7 3 5 7 8 8 11 6 6 8 8 8 7 9 9 12 12 13 19 26 28 28 28 29 28 29 17 16 26 31 32 24 18 15 15 15 14 15 16 15 14 12 12 12 13 14 16 16 17 17 18 19 18 18
13 14 15 16 16 15 14 16 15 12 14 13 14 11 9 9 8 7 9 8 8 8 6 5 5 5 4 4 5 5 3 3 5 4 6 7 8 10 12 10 14 8 7 8 9 11 11 12 13 22 28 28 27 28 27 29 23 17 28 29 29 32 26 13 15 15 14 15 16 16 15 13 12 12 13 14 14 15 15 15 16 17 18 19 20
14 15 15 16 16 14 14 15 17 12 10 10 9 11 10 8 8 7 7 8 7 7 5 6 6 5 5 5 4 4 3 3 4 5 5 6 8 10 11 13 14 8 7 7 10 12 12 11 14 27 26 26 26 26 26 24 19 27 28 30 30 26 15 14 13 14 16 16 16 15 15 14 13 12 12 12 13 13 15 15 16 18 19 18 19
14 15 16 17 16 15 15 15 17 16 16 13 11 10 11 9 9 7 7 8 7 7 7 7 6 5 5 5 4 3 3 3 3 5 4 6 8 10 11 13 13 15 8 4 9 11 15 23 25 23 23 24 26 25 21 22 26 26 28 28 26 13 12 12 13 13 14 14 14 15 14 14 14 15 16 15 16 16 15 15 16 17 17 18 18
15 15 15 15 16 17 17 16 15 15 14 7 7 9 12 10 9 9 7 7 7 7 7 7 6 6 5 5 5 4 3 3 2 2 3 5 5 9 11 11 13 13 12 11 17 18 17 20 22 21 19 18 15 13 13 15 25 26 26 24 13 12 12 12 12 13 13 14 15 15 14 15 15 16 18 17 15 16 16 16 15 16 15 15 16
15 14 15 16 16 16 12 11 9 8 8 7 6 7 7 8 8 9 8 8 8 8 7 7 7 7 6 6 5 4 3 2 3 4 3 4 4 4 6 5 9 9 6 8 8 5 11 13 12 17 16 21 21 20 19 19 15 14 11 11 11 11 11 11 12 14 14 13 14 13 13 14 14 15 13 13 15 15 15 16 15 15 15 14 14
18 17 18 15 14 13 10 12 12 9 7 8 10 8 6 8 9 10 11 11 11 10 9 9 9 8 7 6 5 4 4 3 4 4 4 3 3 3 3 4 2 1 5 6 3 6 7 10 11 8 9 9 9 8 9 9 11 12 11 11 11 12 15 20 18 12 12 12 13 14 14 14 14 14 14 14 15 16 15 16 16 15 14 13 13
15 17 16 13 13 12 13 15 9 10 10 5 4 8 11 13 10 8 6 6 9 10 9 8 7 6 6 6 7 5 5 5 5 5 2 3 3 2 3 2 1 1 6 11 6 4 4 6 6 7 7 9 9 10 10 10 10 11 12 12 11 11 11 10 12 12 12 13 13 13 14 13 14 13 14 15 15 15 15 15 17 16 15 13 14
17 18 16 15 14 14 12 10 9 9 10 13 11 9 7 9 7 8 9 13 15 13 11 7 8 7 7 5 6 5 5 5 5 1 2 3 5 7 7 7 7 5 9 11 7 3 4 4 6 7 9 9 10 10 11 11 12 12 11 14 13 11 12 12 12 13 13 13 13 13 13 13 13 14 14 15 15 16 15 17 16 16 16 14 13
16 16 16 16 17 16 14 10 9 9 11 13 15 15 10 9 11 12 12 15 14 16 14 15 16 14 8 4 6 12 8 4 2 1 3 4 6 7 7 6 7 8 10 7 5 3 5 6 7 7 7 8 9 10 11 12 12 12 13 12 12 13 13 13 13 13 13 13 13 12 12 12 13 14 14 15 17 17 16 15 15 15 15 15 15
18 18 18 16 17 16 14 10 12 10 8 9 10 13 13 13 10 13 15 14 15 15 15 15 16 15 14 10 5 1 4 4 4 4 4 5 6 7 7 7 8 10 11 9 2 4 4 5 7 7 8 8 9 10 10 11 12 12 13 13 13 13 14 14 15 14 14 13 13 13 12 13 13 13 13 14 17 16 16 17 15 15 15 14 14
19 18 16 16 17 16 14 11 12 10 15 14 12 12 13 16 15 12 11 15 15 14 14 14 14 14 14 13 11 8 6 6 6 5 5 5 6 7 6 8 10 11 10 6 4 5 5 6 6 7 8 9 10 10 11 11 12 12 12 13 14 14 14 15 17 14 14 14 14 13 13 13 14 14 14 14 15 15 16 16 16 15 15 15 15
21 19 19 19 19 17 16 11 11 9 10 15 15 13 12 15 18 17 16 13 10 11 13 14 15 14 12 10 10 8 8 7 6 6 6 6 6 7 7 4 8 12 9 4 4 4 4 5 6 7 8 9 9 10 11 11 12 12 13 13 13 14 15 15 14 15 13 14 13 13 14 13 13 14 14 13 13 14 15 16 15 15 14 14 14
15 16 23 20 17 17 14 11 10 12 15 14 14 14 13 13 13 14 14 15 15 13 8 6 8 11 6 7 9 9 8 7 7 7 7 7 7 5 5 6 6 6 7 6 5 4 5 6 7 8 8 9 10 10 11 12 12 12 13 14 14 14 14 15 15 15 14 15 15 14 13 14 14 13 13 13 13 13 14 15 15 14 15 15 14
14 12 14 18 12 10 10 15 14 13 13 12 12 13 12 13 12 10 9 9 10 10 7 5 3 4 12 7 9 8 7 8 8 8 8 9 8 5 5 4 3 4 5 4 4 5 4 5 6 8 8 8 9 10 11 12 12 12 13 13 14 14 14 15 15 15 15 15 15 16 15 14 13 13 14 13 15 15 14 15 16 16 16 15 14
14 12 9 8 6 11 16 15 13 11 11 12 11 11 10 10 9 9 8 9 9 7 8 6 4 3 6 4 3 4 6 7 8 9 9 8 9 7 5 3 2 1 3 4 3 4 5 5 5 7 8 8 9 10 11 12 12 13 14 14 13 14 14 14 17 16 16 16 16 15 15 14 14 14 13 14 14 12 13 15 16 17 17 18 18
14 12 13 15 15 15 14 15 13 14 12 11 8 10 11 10 10 9 9 9 9 9 8 7 6 6 7 2 2 1 2 6 7 7 6 6 5 4 4 1 1 1 1 3 2 3 5 6 6 7 8 8 10 10 11 12 12 13 13 14 14 13 22 20 19 17 17 16 16 16 14 14 14 13 13 13 14 15 16 15 15 15 15 17 14
12 19 20 23 17 15 16 14 13 16 14 12 11 11 11 11 10 9 9 8 8 8 7 6 6 6 5 3 1 1 5 4 3 2 2 2 1 1 1 1 1 1 1 2 3 3 5 7 8 7 8 9 10 11 11 12 12 13 13 14 14 14 15 14 16 15 16 16 16 16 15 14 13 13 13 13 14 14 14 14 15 15 15 14 13
16 15 18 25 16 16 12 13 13 12 10 13 11 10 11 10 10 10 9 9 9 8 7 7 7 6 5 3 3 3 5 3 1 0 0 0 0 1 0 1 2 2 3 5 4 4 5 6 7 8 9 9 10 11 11 12 12 13 13 13 14 15 16 15 15 15 16 17 17 16 16 16 15 14 13 13 13 13 14 16 16 15 15 15 15
13 14 15 16 16 14 12 13 12 12 12 11 11 11 10 10 9 8 8 9 8 8 7 6 6 6 6 6 8 8 7 6 3 2 3 1 1 0 0 1 1 2 2 4 5 5 5 6 7 7 8 9 10 10 11 11 12 12 13 14 14 15 15 13 15 14 17 17 17 17 17 17 16 15 15 14 16 16 15 16 16 14 14 14 15
15 16 15 13 15 13 13 11 10 12 11 11 10 10 10 9 9 9 9 9 8 8 7 6 5 4 4 5 8 10 7 3 3 4 1 1 1 1 1 1 1 2 3 3 4 5 5 6 7 7 9 10 10 10 11 11 12 12 13 14 15 16 14 13 14 15 17 17 18 18 18 17 17 16 16 17 14 14 13 14 14 14 13 14 14
17 15 15 14 13 13 14 13 13 14 11 11 9 7 9 10 9 8 8 8 8 8 8 7 5 3 1 4 7 8 4 2 3 2 1 1 1 1 1 2 3 3 3 5 4 4 4 5 7 7 8 10 10 10 10 11 12 12 13 14 15 17 15 14 14 15 16 17 18 19 20 18 16 15 15 14 14 14 13 15 15 14 14 14 15
15 14 14 14 12 11 11 13 12 10 10 10 10 9 9 8 8 8 8 8 8 7 7 6 6 6 1 3 4 5 1 1 1 1 1 1 1 2 3 3 4 4 5 4 3 3 4 5 7 8 8 9 9 10 10 10 11 12 13 14 14 14 13 15 15 16 17 18 19 19 19 18 18 16 15 15 15 15 14 15 16 14 14 14 14
15 15 14 14 13 15 14 10 11 10 12 11 9 9 8 8 8 7 8 8 7 6 5 5 5 5 4 2 2 1 2 2 2 2 1 1 2 3 4 4 4 5 5 5 4 4 4 6 7 8 10 10 10 10 10 11 11 11 12 13 13 13 14 16 15 16 17 19 19 19 18 18 18 17 17 16 15 16 16 16 15 17 16 15 14
15 15 15 15 14 12 12 13 11 11 11 11 11 9 8 8 7 8 7 7 7 7 6 5 5 4 5 3 2 4 2 2 2 2 3 2 2 4 4 4 5 5 4 5 5 5 5 6 7 8 9 10 11 11 11 11 11 12 12 12 13 14 15 15 15 16 17 19 19 18 18 18 18 17 19 17 15 15 14 15 16 15 15 16 16
17 15 15 14 15 13 13 12 13 13 11 10 9 10 9 8 8 7 6 7 7 6 6 5 5 5 4 4 3 4 3 2 2 1 2 3 4 4 4 5 4 4 5 5 4 5 6 7 7 8 9 9 10 11 11 11 11 11 12 12 13 15 15 17 16 14 16 18 18 17 18 18 18 18 19 18 15 16 16 16 17 19 17 15 15
15 16 16 14 18 19 15 12 12 11 10 9 9 8 8 8 8 7 7 7 7 6 6 5 5 5 5 3 2 2 2 2 2 4 3 3 4 4 4 3 4 4 5 5 5 5 5 6 7 8 8 9 10 10 11 12 11 12 12 12 13 15 24 27 16 15 16 18 17 18 18 18 17 18 18 19 18 17 17 16 18 16 16 16 15
19 21 18 21 20 19 16 15 11 11 10 10 10 9 8 8 7 7 7 6 6 5 6 6 6 4 3 3 2 2 2 4 3 3 3 3 4 4 3 3 3 4 5 5 6 6 7 7 7 7 8 8 9 10 11 12 13 13 14 13 18 32 33 30 20 15 22 19 17 17 17 17 19 19 19 18 18 17 14 15 16 17 17 16 15
16 18 15 14 13 13 12 10 10 9 9 9 9 9 8 7 8 7 6 6 5 5 4 5 5 4 4 3 4 4 2 3 2 2 3 4 4 3 2 3 3 4 4 5 6 6 7 7 7 7 8 8 9 9 10 11 12 13 13 16 28 33 33 31 25 24 22 17 18 16 17 18 18 18 17 17 17 19 18 16 18 17 16 16 15
13 13 12 11 11 10 10 9 9 9 9 9 9 9 8 8 7 6 6 6 6 6 5 5 3 4 3 3 5 3 3 3 3 3 3 3 3 3 3 4 5 4 5 5 6 6 7 6 7 7 7 8 9 9 10 11 11 13 22 29 30 32 33 31 23 24 29 24 16 16 17 19 19 19 19 18 18 18 20 21 18 17 16 14 14
Wind_Direction
184 189 180 188 181 186 183 177 176 170 163 164 161 163 161 159 159 154 140 151 146 146 150 155 157 165 170 172 174 180 174 187 187 198 223 238 242 244 251 255 261 263 268 269 267 274 276 277 277 277 282 279 281 282 280 280 278 275 274 275 274 270 264 263 264 271 279 282 289 290 299 305 296 288 286 283 285 281 277 277 282 285 285 283 283
194 186 183 183 185 183 178 174 171 168 164 163 161 160 159 158 153 146 150 150 146 149 154 155 159 168 169 176 180 180 185 188 198 200 227 241 252 249 255 260 262 272 273 276 277 275 278 278 278 281 279 278 281 277 275 276 277 277 274 274 273 272 268 272 274 280 283 290 286 288 289 294 291 294 293 291 286 286 282 281 282 280 280 278 275
193 183 181 182 184 177 170 174 171 170 167 167 163 160 157 153 151 147 146 147 143 149 153 153 160 162 169 179 184 187 189 192 191 201 223 234 249 254 259 261 268 271 273 274 276 278 277 275 278 281 281 278 275 276 279 277 275 272 273 273 275 275 276 277 284 282 280 280 281 284 286 291 285 295 293 284 281 283 285 283 283 281 271 275 278
188 184 184 182 176 171 176 171 171 173 173 171 164 160 155 152 148 144 142 142 145 146 147 154 157 169 175 183 185 186 182 186 196 209 221 233 246 258 257 260 264 267 271 274 276 275 272 277 274 275 275 272 271 272 271 268 268 269 273 272 271 271 270 270 266 271 276 279 278 278 285 293 291 285 286 290 288 287 284 285 280 274 277 275 273
187 187 182 178 177 177 176 173 175 175 174 168 164 157 154 149 147 145 140 141 143 141 149 155 164 171 183 183 191 188 190 192 199 209 224 226 243 253 255 258 261 265 267 267 269 268 269 268 272 270 269 269 270 268 268 266 263 264 264 266 265 266 263 260 266 265 272 274 280 277 282 281 283 285 287 287 286 279 277 273 275 272 274 273 277
193 186 182 178 180 180 177 175 179 177 170 166 162 157 152 148 144 140 141 141 141 150 156 164 168 178 172 183 177 179 174 180 198 222 228 238 244 247 253 257 261 264 264 265 265 266 268 266 266 267 265 264 268 271 270 268 266 260 256 257 258 260 263 264 262 263 262 269 274 280 276 279 280 276 280 280 283 286 283 278 274 270 276 280 275
194 190 185 184 179 182 181 181 175 172 169 163 157 153 150 145 142 143 142 143 148 153 159 153 155 160 171 160 173 176 195 198 214 227 230 233 236 244 253 255 259 260 263 265 263 262 262 263 266 267 265 265 271 271 268 273 271 265 259 262 264 262 260 260 257 260 258 260 261 262 273 272 273 278 275 272 273 274 283 286 284 278 271 269 276
190 190 186 186 186 184 181 172 168 166 161 155 153 150 144 141 138 134 136 144 149 153 155 156 151 135 154 152 172 181 197 213 220 222 228 227 231 241 245 255 262 265 266 267 271 271 268 267 266 265 269 271 270 275 275 276 274 268 268 260 261 258 260 257 258 256 260 256 262 265 263 269 265 269 272 273 275 272 267 275 282 285 281 281 276
185 187 188 190 188 178 165 164 161 159 156 152 150 148 143 137 134 133 135 138 136 140 138 137 150 153 164 178 199 211 212 222 220 221 220 227 220 227 244 255 262 269 272 271 271 269 269 269 268 269 270 273 277 277 278 280 279 276 270 239 241 243 251 251 253 251 255 258 261 259 264 267 264 268 270 264 265 268 277 267 274 279 282 277 269
183 186 190 189 177 166 162 160 161 158 154 154 149 144 141 138 136 135 128 131 132 136 140 143 152 169 184 201 208 216 222 219 228 232 227 203 201 218 236 246 259 266 271 273 271 269 268 269 273 276 281 284 283 284 285 284 282 280 280 279 275 269 262 259 253 250 253 259 258 257 260 258 253 264 260 262 266 269 271 274 269 275 275 278 275
185 185 187 176 165 159 161 163 158 159 153 146 145 144 141 139 135 131 133 135 138 139 146 157 168 181 191 201 210 215 220 224 233 237 242 246 241 241 258 265 264 267 268 274 278 280 280 279 277 274 277 278 279 278 280 282 283 283 282 281 279 278 280 279 277 275 270 265 264 256 253 260 254 253 258 259 257 257 261 260 262 271 274 279 283
180 181 173 163 163 163 162 156 156 154 150 151 148 142 135 136 135 136 139 140 144 143 152 168 173 183 195 206 213 217 222 235 239 244 249 252 255 257 257 260 260 268 276 274 278 282 284 281 275 274 276 267 269 276 278 280 283 284 285 282 280 278 275 274 276 275 275 277 275 270 267 261 268 249 260 258 262 260 260 268 266 264 270 271 274
173 171 168 164 164 162 157 157 155 153 155 148 143 137 139 133 136 142 145 139 140 150 165 170 179 187 197 203 212 218 223 236 245 252 256 256 259 262 262 263 264 250 268 280 283 283 283 284 286 280 266 279 279 274 272 273 275 279 280 281 279 276 274 272 271 271 273 273 274 275 272 282 281 274 268 269 271 270 271 267 269 268 266 272 273
171 171 166 167 165 163 160 160 160 157 151 149 148 145 138 134 128 126 132 142 153 158 166 174 180 189 196 202 210 223 226 239 251 255 257 260 262 269 267 264 265 283 286 283 281 281 284 285 285 282 281 277 275 280 278 277 277 276 273 267 262 262 265 264 265 266 267 268 271 271 270 262 271 274 272 273 273 269 272 270 269 266 263 260 268
172 170 170 170 166 165 164 163 160 157 155 153 145 134 133 132 140 148 152 156 159 164 169 174 185 184 195 200 206 230 236 245 251 257 262 266 270 274 272 290 287 267 269 277 281 282 283 282 285 286 282 280 279 282 289 291 292 288 281 278 271 252 245 246 248 253 254 257 258 261 263 258 260 264 263 258 258 262 262 267 265 262 267 270 265
174 172 175 174 172 170 166 166 162 159 155 137 137 144 142 146 148 147 143 141 145 152 163 169 180 187 188 184 207 234 239 249 260 263 266 270 275 282 263 271 263 266 264 274 283 286 288 290 291 289 288 285 290 297 300 301 295 290 288 286 283 276 260 253 260 262 262 262 260 258 258 260 260 261 261 257 256 257 258 260 262 260 267 267 265
181 180 179 175 174 172 169 164 161 156 136 140 141 141 147 143 140 141 143 151 157 164 166 168 175 179 186 190 208 232 238 253 260 260 263 271 281 261 258 263 268 270 272 274 282 288 292 292 296 299 300 301 302 304 303 303 298 297 295 291 285 278 275 273 276 279 279 277 277 275 273 271 269 269 270 268 265 260 256 261 258 254 257 259 261
184 181 181 177 173 170 168 162 159 158 156 152 144 143 136 132 142 149 148 152 158 162 160 161 176 183 190 194 204 224 233 250 252 257 264 271 277 272 274 267 271 277 278 280 284 287 290 299 302 302 302 302 304 305 307 308 300 293 287 284 284 280 275 272 269 274 278 279 277 276 273 273 272 272 271 270 271 271 265 262 265 266 260 259 265
185 184 178 170 168 167 165 163 160 159 162 160 155 146 146 147 144 137 140 141 148 153 152 162 174 185 192 192 218 226 229 242 252 257 267 273 284 272 263 270 275 280 286 289 287 285 293 300 302 302 303 304 306 308 308 307 298 294 293 291 291 289 291 295 293 289 282 275 269 265 264 264 265 263 262 264 267 271 269 266 266 254 260 262 262
175 163 161 162 162 162 165 165 162 159 157 152 149 132 132 129 142 144 144 135 135 139 151 160 174 174 178 194 221 231 231 232 243 257 266 277 288 288 270 277 284 288 292 292 300 301 301 298 300 304 306 307 308 307 307 308 308 304 300 296 295 297 302 292 284 284 287 284 281 275 268 264 259 256 252 253 254 252 257 260 259 256 264 267 264
163 161 157 158 161 163 164 167 160 159 153 151 143 130 138 141 136 136 137 138 143 148 156 160 157 172 192 213 212 224 215 229 244 257 272 283 291 297 279 283 290 294 296 308 307 309 307 306 306 306 308 308 309 311 313 313 312 309 306 302 298 296 300 299 300 303 299 296 290 285 277 266 257 250 246 245 246 248 253 255 257 257 256 258 257
155 157 160 159 159 159 160 160 158 152 149 142 143 131 124 125 130 128 124 138 147 139 138 148 162 189 205 209 206 214 231 223 212 263 277 287 292 304 306 296 304 308 310 302 306 308 309 309 308 307 311 314 316 317 316 316 314 316 306 303 304 307 307 305 310 312 301 294 289 284 279 266 255 249 246 247 247 248 252 255 255 252 249 248 249
156 157 157 158 159 158 157 157 153 149 142 147 139 132 134 126 126 127 138 138 137 142 151 162 172 191 192 201 205 204 189 213 246 250 275 289 301 309 309 309 313 316 308 307 314 311 308 304 296 306 317 320 321 320 320 319 320 310 309 312 313 313 316 318 310 304 300 299 299 296 292 278 263 260 253 253 251 249 250 249 251 251 249 247 245
155 158 160 159 154 154 152 151 134 146 134 133 120 129 134 130 128 141 137 138 140 145 158 170 177 177 185 197 184 172 188 178 241 263 271 296 310 310 311 313 315 315 313 314 314 309 306 298 311 320 321 321 322 324 324 322 316 314 316 318 320 321 315 307 303 302 301 299 299 297 299 302 297 280 267 261 260 252 251 250 249 252 250 250 246
158 163 163 162 157 151 148 151 146 130 147 138 133 129 134 136 134 145 141 147 149 150 164 166 171 175 176 181 186 179 185 193 215 250 292 309 311 311 313 314 318 318 317 317 311 304 310 319 322 323 323 324 326 327 325 320 318 319 320 321 323 313 308 304 304 303 301 301 300 297 295 295 296 297 301 301 294 281 268 263 260 259 256 253 251
163 165 166 159 152 148 144 149 151 144 141 122 118 138 142 147 140 146 150 149 155 156 157 156 166 173 174 176 180 181 191 194 221 239 255 277 298 310 314 320 319 320 322 319 311 314 324 327 325 324 325 325 325 324 320 319 321 322 321 321 314 309 306 305 303 305 303 304 301 298 298 298 297 298 297 293 288 285 280 269 262 258 254 253 254
160 158 160 158 147 149 137 145 138 135 136 126 120 116 129 134 136 142 153 154 154 157 156 164 172 169 175 173 174 184 185 198 215 236 246 242 241 269 313 300 313 325 326 290 299 355 337 331 324 324 323 323 324 320 317 316 315 314 311 309 308 307 307 305 307 308 305 300 300 298 298 299 299 298 295 295 290 288 287 278 262 255 252 250 251
165 166 163 162 165 166 149 136 136 140 143 142 142 142 145 150 150 159 164 164 159 163 167 173 173 168 170 169 173 175 188 202 225 236 240 225 241 261 281 272 292 338 297 286 32 356 338 318 320 309 311 313 315 309 305 308 310 312 310 310 309 310 313 312 309 301 299 299 297 299 298 300 298 296 295 293 292 291 292 290 277 261 250 249 250
158 158 161 161 167 170 165 163 153 141 144 124 110 151 154 161 158 155 162 158 160 157 162 165 162 163 160 169 165 169 181 209 231 242 251 319 324 326 288 282 292 250 316 345 17 355 316 317 308 318 321 320 318 317 315 315 315 313 311 311 315 316 314 314 313 308 305 305 304 302 300 300 299 299 298 297 294 295 295 296 295 282 261 246 249
161 166 166 169 167 167 168 163 155 146 142 150 145 137 141 146 151 150 150 162 162 161 159 157 156 153 164 178 160 178 178 214 235 17 359 352 352 354 353 359 359 354 3 8 8 336 312 312 321 325 324 324 323 322 323 322 320 321 318 320 318 317 319 317 311 306 306 305 303 301 299 301 300 305 303 300 300 298 295 296 294 295 285 261 251
172 170 169 175 175 171 166 154 155 144 141 129 133 135 138 146 152 147 148 158 163 165 162 165 165 167 167 171 178 181 201 198 114 106 47 23 14 14 16 18 14 17 21 25 6 346 331 331 326 324 318 318 316 319 320 321 321 320 320 319 317 319 320 317 313 306 307 307 305 299 297 301 304 305 302 300 301 299 298 293 292 291 286 280 259
174 181 180 173 168 171 166 147 143 143 140 137 132 136 142 138 143 157 160 165 168 165 162 164 165 167 164 161 161 220 165 149 131 92 69 41 30 25 31 31 28 31 30 28 15 341 336 331 328 322 317 317 316 316 317 317 318 318 319 321 321 321 321 320 313 309 307 308 306 304 304 305 303 301 298 298 299 298 296 296 292 292 292 289 276
178 176 174 170 169 167 161 155 154 148 149 147 143 145 143 148 143 144 160 169 162 156 157 159 159 157 157 159 158 162 151 137 122 94 69 54 42 35 37 38 40 33 36 29 29 349 343 329 311 309 320 319 318 318 316 317 317 318 318 318 319 320 319 316 313 307 305 308 309 306 307 304 304 300 298 298 297 293 294 292 292 288 288 287 287
181 174 171 172 168 171 168 160 150 149 146 151 151 149 151 152 137 144 142 156 155 150 151 153 155 151 148 144 143 138 129 125 108 94 75 62 50 45 44 36 47 39 46 44 13 355 323 314 319 322 320 316 313 315 315 316 317 315 315 315 314 314 316 316 315 311 307 312 311 306 306 304 304 304 300 296 291 292 292 290 289 287 285 284 284
180 182 176 167 169 167 166 156 139 138 152 152 152 150 148 150 151 153 161 161 150 143 142 127 137 139 118 128 136 133 124 115 105 87 78 66 54 66 68 42 25 359 15 23 12 344 335 334 323 318 316 314 315 317 316 316 315 317 315 315 314 316 318 319 315 309 311 316 313 309 307 307 307 301 299 299 298 293 290 288 285 280 279 280 279
177 168 170 173 165 152 143 158 155 150 148 149 148 146 144 146 148 152 154 146 142 139 133 142 124 153 141 130 135 124 113 107 101 82 80 74 57 57 57 34 34 16 5 345 346 336 326 312 310 308 310 308 312 314 313 313 313 313 312 312 314 315 316 317 314 311 316 316 312 310 310 308 307 303 301 293 288 287 288 286 284 282 277 274 274
174 167 163 163 138 134 147 149 155 147 140 139 138 134 133 133 131 139 145 142 139 135 137 138 124 106 82 6 48 76 98 102 92 77 68 72 70 70 101 98 67 352 342 331 327 319 313 303 298 300 305 310 312 312 312 311 311 311 312 313 310 313 312 315 314 314 317 319 316 313 312 310 310 307 302 299 296 290 287 288 285 280 277 274 276
177 161 156 161 155 154 145 145 141 133 127 129 120 125 131 133 137 142 143 140 142 142 144 153 151 148 143 196 92 122 85 68 68 56 38 41 44 45 53 70 88 35 306 298 300 301 304 305 308 310 310 312 312 313 313 311 312 313 312 311 312 308 315 318 312 312 318 318 317 316 314 312 312 309 304 298 295 295 291 287 285 282 278 275 274
157 160 155 152 154 148 138 136 135 128 126 131 133 132 136 138 139 141 142 142 142 141 144 141 141 147 151 165 211 170 94 58 58 53 18 9 23 49 70 29 31 347 313 301 309 318 316 315 316 315 314 317 313 312 311 311 312 312 313 312 313 314 317 320 315 316 323 323 320 318 316 314 314 310 305 299 295 292 287 286 286 282 277 275 269
155 156 151 146 143 144 138 135 133 134 134 128 132 133 135 141 146 144 142 141 143 144 144 146 147 154 176 169 196 155 117 134 159 191 202 250 261 297 20 23 10 334 321 319 320 318 316 311 311 317 316 314 312 309 309 309 310 310 312 314 314 315 315 314 309 316 323 324 321 320 319 317 315 312 306 300 294 294 297 296 293 284 280 275 272
149 145 147 146 138 133 129 133 138 140 142 140 138 138 138 136 134 134 135 138 138 141 143 149 149 173 181 207 189 156 142 154 167 187 217 217 232 254 277 305 319 316 312 315 314 313 309 309 314 315 312 307 308 307 307 308 309 312 314 315 314 314 311 304 305 315 322 323 323 322 321 319 317 316 314 309 308 305 297 294 289 282 276 271 270
143 144 144 142 139 134 135 134 132 129 130 132 136 137 136 136 136 137 140 141 141 141 137 138 153 169 242 193 139 132 125 152 160 195 226 226 229 245 252 257 254 252 274 284 296 306 310 314 313 312 307 307 307 307 308 308 312 313 313 315 316 315 307 305 311 321 325 324 325 323 322 319 317 315 312 312 307 305 298 293 289 285 279 273 268
144 142 140 140 143 144 140 136 133 130 131 133 129 123 126 131 134 135 135 134 137 138 138 140 148 158 282 141 125 112 104 156 193 213 210 231 245 257 273 279 277 274 267 266 263 271 292 303 304 299 299 299 299 299 302 304 306 309 311 315 316 316 311 308 315 324 328 327 326 324 322 320 320 318 316 311 309 308 299 297 298 291 283 276 272
142 137 137 138 135 126 126 129 134 132 129 122 117 124 127 124 125 127 129 129 133 133 136 141 146 147 129 32 69 89 145 209 231 236 241 261 276 284 288 292 296 295 287 279 290 311 316 305 299 297 295 295 295 296 296 299 306 308 313 315 315 308 306 313 322 328 330 330 328 326 324 322 321 320 317 315 317 314 310 306 300 293 287 282 275
138 136 134 132 130 124 121 123 121 120 118 121 125 122 122 125 127 127 127 129 127 127 129 137 139 140 130 125 120 172 223 227 244 260 279 269 277 284 290 297 299 299 299 307 323 331 320 308 298 300 302 302 303 304 304 305 308 310 311 315 316 313 313 317 322 326 330 331 330 327 325 325 323 323 321 319 317 315 311 311 307 300 292 281 276
137 134 134 133 130 129 127 118 127 129 132 131 129 128 126 123 125 129 131 127 129 133 136 137 141 144 148 164 187 193 225 235 258 253 263 276 275 280 281 282 286 291 303 317 325 322 309 298 299 298 300 302 306 308 309 308 310 312 312 312 314 309 310 315 322 328 333 335 332 328 325 324 324 322 322 321 317 313 308 306 305 298 291 287 279
137 136 136 134 132 128 127 124 123 121 125 129 124 126 129 130 128 126 124 126 131 135 140 146 149 157 165 179 192 208 218 220 237 256 252 257 264 268 275 279 287 306 325 328 322 311 304 299 296 293 296 299 305 308 310 310 311 312 314 315 311 313 318 325 327 331 335 335 333 328 327 327 326 327 326 325 323 320 316 313 315 306 299 289 287
120 127 121 125 115 114 125 129 127 126 124 125 126 125 126 126 127 126 127 129 130 134 135 140 151 162 164 184 193 203 223 226 242 244 256 260 266 270 275 288 314 329 328 326 317 308 301 296 294 295 298 305 311 313 312 312 312 314 315 315 311 314 327 328 331 335 340 337 334 331 329 329 328 328 328 328 328 327 320 316 311 310 306 301 293
123 105 100 113 112 110 123 129 129 133 133 130 126 123 128 126 128 126 131 130 134 138 145 154 159 161 162 181 186 208 225 231 241 258 259 267 269 273 279 311 328 333 329 319 310 307 302 297 294 295 298 304 307 309 312 312 314 316 316 314 316 327 333 333 336 341 343 339 336 333 331 330 331 330 330 330 330 329 320 309 309 313 311 305 299
96 92 114 119 122 119 111 107 119 122 125 126 128 128 128 126 129 134 133 131 127 136 153 152 153 156 156 174 191 214 218 226 235 246 255 266 268 280 309 335 336 330 321 307 306 301 299 294 298 298 306 306 309 310 310 311 312 313 315 315 322 333 336 337 340 348 350 344 339 335 335 333 333 332 334 332 332 330 330 324 320 319 315 310 309
114 112 95 99 115 114 117 110 96 115 126 128 129 131 133 134 133 131 132 138 148 152 146 149 137 140 156 193 199 216 217 236 237 246 253 271 289 319 333 339 334 327 314 302 298 295 293 295 303 307 309 310 313 310 311 310 311 310 313 319 330 337 340 343 345 351 351 346 339 340 339 339 337 338 338 337 335 336 333 332 326 325 320 317 319